Regional Weather Roundup
Issued by NWS Upton, NY

Current Version | Previous Version | Graphics & Text | Print | Product List | Glossary Off
Versions: 1 2 3 4 5 6 7 8 9 10 11 12 13 14 15 16 17 18 19 20 21 22 23 24 25 26 27 28 29 30 31 32 33 34 35 36 37 38 39 40 41 42 43 44 45 46 47 48 49 50

000
ASUS41 KOKX 222307
RWROKX

REGIONAL WEATHER ROUNDUP
NATIONAL WEATHER SERVICE NEW YORK NY
700 PM EDT WED MAR 22 2017

NOTE: "FAIR" INDICATES FEW OR NO CLOUDS BELOW 12,000 FEET WITH NO
SIGNIFICANT WEATHER AND/OR OBSTRUCTIONS TO VISIBILITY.

NYZ071-072-176-178-NJZ106-104-230000-
NEW YORK CITY METRO AREA

CITY           SKY/WX    TMP DP  RH WIND       PRES   REMARKS
Central Park   CLEAR     30  -5  21 NW12G32   30.32R WCI  20
Wall St Helipt CLEAR     35   6  29 VRB3      30.31R
LaGuardia APRT CLEAR     33   1  25 NW18G32   30.29R WCI  22
Kennedy INTL   CLEAR     32  -4  21 N25G38    30.30R WCI  19
Breezy Point     N/A    N/A N/A N/A NW17G26     N/A
Newark/Liberty CLEAR     31  -5  21 NW21G36   30.32R WCI  18
Teterboro      CLEAR     31  -2  24 N25G36    30.30R WCI  17
$$

NYZ177-179-078>081-230000-
LONG ISLAND NEW YORK

CITY           SKY/WX    TMP DP  RH WIND       PRES   REMARKS
Jones Beach      N/A    N/A N/A N/A N28G35      N/A
Matinecock PT    N/A     32 N/A N/A N31G37      N/A  WCI  17
Farmingdale    CLEAR     30  -7  20 NW20G29   30.28R WCI  17
MacArthur/ISP  CLEAR     29  -1  27 N21G29    30.26R WCI  16
Shirley        CLEAR     28  -5  23 NW21G32   30.27R WCI  15
Westhampton    CLEAR     27  -8  21 NW24G38   30.25R WCI  12
East Hampton     N/A     26  -6  24 NW17G32   30.21R WCI  14
Montauk          N/A     29   2  31 NW18G29   30.21R WCI  16
$$

NYZ052-065-067-230000-
HUDSON VALLEY

CITY           SKY/WX    TMP DP  RH WIND       PRES   REMARKS
White Plains   CLEAR     27  -4  26 NW17      30.27R WCI  14
Newburgh       CLEAR     25   1  36 NW18G25   30.31R WCI  11
Montgomery     CLEAR     25  -5  26 N8G24     30.32R WCI  16
Poughkeepsie   CLEAR     24  -2  32 NW15G25   30.32R WCI  11
Albany         PTCLDY    24  -6  26 NW18G28   30.34R WCI  10
$$

NJZ001-105-106-008-010-013-015-019>022-104-230000-
NEW JERSEY

CITY           SKY/WX    TMP DP  RH WIND       PRES   REMARKS
Newark/Liberty CLEAR     31  -5  21 NW21G36   30.32R WCI  18
Teterboro      CLEAR     31  -2  24 N25G36    30.30R WCI  17
Caldwell       CLEAR     29  -2  26 NW8G17    30.33R WCI  21
Somerville     CLEAR     30  -1  26 NW17G28   30.33R WCI  18
Linden           N/A     31  -5  21 N15G26    30.34R WCI  20
Sussex         CLEAR     26  -3  28 NW8G20    30.34R WCI  18
Andover          N/A     25  -2  31 N15G26    30.33R WCI  13
Trenton        CLEAR     31  -2  24 N14G22    30.34R WCI  21
Millville      CLEAR     36   2  23 N14G24    30.33R WCI  27
Atlantic City  CLEAR     35  -3  19 N25G33    30.31R WCI  23
Wrightstown    CLEAR     32   0  26 NW26G32   30.31R WCI  18
Toms River     CLEAR     32   0  25 NW18G30   30.32R WCI  20
Belmar         CLEAR    N/A N/A N/A NW16G31   30.32R
$$

PAZ047>061-062-071-230000-
EASTERN PENNSYLVANIA

CITY           SKY/WX    TMP DP  RH WIND       PRES   REMARKS
Philadelphia   CLEAR     36   1  22 NW22      30.36R WCI  25
Allentown      CLEAR     31  -2  24 NW14G25   30.37R WCI  21
Scranton       MOCLDY    23   0  36 NW16G26   30.37R WCI  10
$$

CTZ002-004>006-009-010-012-RIZ004-006-007-MAZ004-011-015-230000-
SOUTHERN NEW ENGLAND
 IN CT

CITY           SKY/WX    TMP DP  RH WIND       PRES   REMARKS
Bradley INTL   PTCLDY    25  -7  24 NW20G37   30.24R WCI  11
Hartford       CLEAR     25  -3  29 NW17G26   30.26R WCI  12
Danbury        CLEAR     24  -6  26 NW15G28   30.28R WCI  11
Wtrbury/Oxford CLEAR     21  -8  27 NW12G25   30.24R WCI   9
Bridgeport     CLEAR     29  -7  20 NW20G36   30.27R WCI  16
Meriden        CLEAR     26  -6  24 NW17G36   30.26R WCI  13
New Haven      CLEAR     26  -6  24 N18G28    30.27R WCI  13
Chester          N/A     25  -8  24 NW23G35   30.20R WCI  10
Groton         CLEAR     28  -5  23 N15G25    30.20R WCI  16
Wilimantic     CLEAR     28  -7  21 NW15G25   30.20R WCI  16

 IN RI

CITY           SKY/WX    TMP DP  RH WIND       PRES   REMARKS
Providence     PTCLDY    27  -6  23 NW21G29   30.16R WCI  13
Block Island   CLEAR     28   1  31 NW21G31   30.16R WCI  15
Westerly       CLEAR     29  -8  20 N16G28    30.18R WCI  17
 IN MA

CITY           SKY/WX    TMP DP  RH WIND       PRES   REMARKS
Boston         PTCLDY    24  -7  25 NW25G37   30.15R WCI   8
Worcester      CLEAR     20  -7  30 NW24G35   30.11R WCI   3
Westfield      CLEAR     24  -7  25 NW22G32   30.23R WCI   9
Provincetown   CLEAR     25   7  46 NW36      30.09R WCI   7
Nantucket      CLEAR     28  -1  28 NW24G38   30.08R WCI  14
$$

ANZ330-335-338-340-345-350-353-355-230000-
COASTAL MARINE OBSERVATIONS


STATION/POSITION TIME  SKY/WX   TEMP    WIND        PRES    VSBY  WAVE
                                AIR SEA DIR/SP/G                  HT/PER
                 (UTC)          (F)     (DEG/KT/KT) (MB)    (MI)  (FT/S)
NY HARB ENTRANCE 2150            33 42  310/ 25/ 31 1023.9          6/ 5
20 S FIRE ISLAND 2250            33 41  330/ 25/ 31 1024.1          7/ 6
GREAT SOUTH BAY  NOT AVBL
23 SSW MONTAUK P 2150            30 42              1021.1          7/ 6
15 E BARNEGAT LI 2230               43                N/A           7/ 6
HUDSON CANYON    2250            35 45  330/ 27/ 33 1023.2         11/ 8
KINGS POINT      2230            31 39              1025.3
EXECUTION ROCKS  NOT AVBL
CENTRAL LI SOUND NOT AVBL
EASTERN LI SOUND NOT AVBL
ROBBINS REEF     2230            31     320/ 23/ 30 1025.6
$$


>>>>>>>>>>>>>>>>>>>>>>>>>>>> KEY <<<<<<<<<<<<<<<<<<<<<<<<<<<
>                                                          <
>     SKY/WX - Sky Condition/Present Weather               <
>     TMP    - Temperature in Fahrenheit                   <
>     DP     - Dew Point in Fahrenheit                     <
>     RH     - Relative Humidity in Percent                <
>     WIND   - Direction (from) and Speed in MPH           <
>     PRES   - Mean Sea Level Pressure (inches of Hg)      <
>     WCI    - Wind Chill Index                            <
>     VSB    - VISIBILITY IN MILES                         <
>     HX     - HEAT INDEX                                  <
>     TC     - TEMPERATURE IN CELSIUS                      <
>     VRB    - VARIABLE WIND DIRECTION                     <
>                                                          <
>>>>>>>>>>>>>>>>>>>>>>>>>>>> KEY <<<<<<<<<<<<<<<<<<<<<<<<<<<



USA.gov is the U.S. government's official web portal to all federal, state and local government web resources and services.